Location: Sungai Bunut
(2.6333°N, 113.7333°E)
Time: 07:35:27
(UTC+00:00)

Vanguard 3 - Pass Details

Date: 09 December 2023
Orbit: 508 x 3239 km, 33.3° (Epoch: 21 February)

Event Time Altitude Azimuth Distance (km) Brightness Sun altitude
Rises 05:05:50 0° 206° (SSW) 5,415 11.8 61.9°
Reaches altitude 10° 05:11:32 10° 185° (S) 4,960 11.7 61.3°
Maximum altitude 05:19:46 16° 151° (SSE) 5,061 11.6 60.3°
Drops below altitude 10° 05:29:30 10° 119° (ESE) 6,035 11.7 59.1°
Sets 05:37:48 0° 101° (E) 7,200 11.8 57.9°
